sat.trackr.live / text

‹ back to catalog

STARLINK-6283

NORAD 56406 · 2023-061AJ

PAYLOAD ACTIVE UNKNOWN

§ Identity

Operator
Country
US
Launch date
2023-05-04
Launch site
AFETR
Launch vehicle
Mass (kg)
RCS (m²)

Purposes: comms

External: N2YO · Heavens-Above · Gunter

§ Orbital elements

Epoch: 2026-05-25T05:10:11.443008Z

Period
94.27 min
Inclination
43.0007°
Eccentricity
0.0000790
Mean motion
15.27568579 rev/d
Perigee alt
482.5 km
Apogee alt
483.6 km
Semi-major
6,861.2 km
B*
-7.2289e-6
RAAN
115.2455°
Arg perigee
256.7009°
Mean anomaly
103.3754°
Rev number
16,857

§ Raw data

STARLINK-62831 56406U 23061AJ  26145.21541022 -.00000461  00000+0 -72289-5 0  99932 56406  43.0007 115.2455 0000790 256.7009 103.3754 15.27568579168570

JSON: /api/v1/satellites/56406 · /tle

For live sub-satellite position, see the globe view (requires WebGL).

§ Visibility from observer

Set your observer location to see the next 7 days of passes ≥ 10°. The values pass through the URL so the page stays shareable.

No JS? Fill the form by hand. The geolocation button needs JavaScript.